User: anonymous   Login
Location: Nantong Television Tower
(32.0188°N, 120.8512°E)
Time: 11:55:08
(UTC+08:00)
Language:

ATLAS 3B CENTAUR R/B - Orbit

View from above orbital plane
View from above orbital plane
View from above satellite
View from above satellite

Ground track
Ground track

The orbit data is extracted from the following two-line orbital elements,

1 28118U 03057B   15243.53599846  .00079447  00000-0  13995-2 0  9999
2 28118  28.1331 292.8673 3536553 156.5486 224.6765  8.41114091231098
Epoch (UTC): 31 August 2015 12:51:50
Eccentricity: 0.3536553
inclination: 28.1331°
perigee height: 223 km
apogee height: 7447 km
right ascension of ascending node: 292.8673°
argument of perigee: 156.5486°
revolutions per day: 8.41114091
mean anomaly at epoch: 224.6765°
orbit number at epoch: 23109

The dashed part of the orbit path shows where the satellite is in the earth's shadow,  

DLR